Home > Weather > Brandon > Past weeks

Flag for Canada Past Weather in Brandon, Manitoba, Canada — Yesterday and Last 2 Weeks

Now
59 °F

Passing clouds.


Feels Like: 60 °F
Forecast: 56 / 83 °F
Wind: 3 mph from East

Location: Brandon

Current Time: Jul 30, 2016 at 4:22:51 AM

Latest Report: Jul 30, 2016 at 4:00 AM


Visibility: 15 mi

Pressure: 29.93 "Hg

Humidity: 88%

Dew Point: 55 °F

Location of BrandonLocation

Past Weather in Brandon — Graph

°F

Brandon Temperature Yesterday

Maximum temperature yesterday: 79 °F (at 3:00 PM)
Minimum temperature yesterday: 48 °F (at 6:00 AM)
Average temperature yesterday: 66 °F

High & Low Weather Summary for the Past Weeks

 TemperatureHumidityPressure
High90 °F (Jul 20, 3:00 PM)100% (Jul 16, 1:00 AM)30.21 "Hg (Jul 16, 1:00 AM)
Low46 °F (Jul 28, 6:00 AM)39% (Jul 29, 3:00 PM)29.67 "Hg (Jul 23, 7:00 PM)
Average67 °F77%29.99 "Hg
* Reported Jul 15 3:00 AM — Jul 30 3:00 AM, Brandon, Weather by CustomWeather, © 2016

Note: Actual official high and low records may vary slightly from our data, if they occured in-between our weather recording intervals... More about our weather records

Advertising

Brandon Weather History for the Previous 24 Hours

Scroll right to see more
 ConditionsComfort  
Time TempWeatherWind HumidityBarometerVisibility
3:00 AM
Sat, Jul 30
61 °FPassing clouds.2 mph83%29.93 "Hg15 mi
2:00 AM57 °FPassing clouds.5 mph88%29.95 "Hg15 mi
1:00 AM63 °FPassing clouds.3 mph83%29.96 "Hg15 mi
12:00 AM63 °FMostly cloudy.2 mph83%29.96 "Hg15 mi
11:00 PM
Fri, Jul 29
66 °FPassing clouds.6 mph78%29.96 "Hg15 mi
10:00 PM70 °FPartly sunny.3 mph64%29.97 "Hg15 mi
9:00 PM72 °FPartly sunny.3 mph61%29.97 "Hg15 mi
8:00 PM73 °FPartly sunny.6 mph57%29.98 "Hg15 mi
7:00 PM77 °FPartly sunny.6 mph47%29.98 "Hg15 mi
6:00 PM79 °FPartly sunny.8 mph42%30.01 "Hg15 mi
5:00 PM79 °FScattered clouds.8 mph42%30.02 "Hg15 mi
4:00 PM79 °FScattered clouds.9 mph39%30.03 "Hg15 mi
3:00 PM79 °FPassing clouds.10 mph39%30.05 "Hg15 mi
2:00 PM77 °FPassing clouds.6 mph42%30.06 "Hg15 mi
1:00 PM75 °FScattered clouds.6 mph47%30.07 "Hg15 mi
12:00 PM75 °FPartly sunny.8 mph54%30.08 "Hg15 mi
11:00 AM73 °FPartly sunny.6 mph61%30.09 "Hg15 mi
10:00 AM70 °FPartly sunny.9 mph64%30.10 "Hg15 mi
9:00 AM64 °FPartly sunny.8 mph78%30.11 "Hg15 mi
8:00 AM59 °FScattered clouds.5 mph88%30.12 "Hg15 mi
7:00 AM52 °FPassing clouds.3 mph94%30.12 "Hg15 mi
6:00 AM48 °FPassing clouds.5 mph100%30.11 "Hg15 mi
5:00 AM50 °FPassing clouds.6 mph94%30.11 "Hg15 mi
4:00 AM52 °FPassing clouds.5 mph94%30.11 "Hg15 mi
Weather by CustomWeather, © 2016

See weather overviewHow to use our weather pages